Location: Castillon
(43.0896°N, 0.2156°E)
Time: 03:54:44
(UTC+00:00)

Cosmos 1980 Rocket - Pass Details

Date: 18 October 2021
Orbit: 828 x 851 km, 71.0° (Epoch: 07 December)

Event Time Altitude Azimuth Distance (km) Brightness Sun altitude
Rises 20:12:39 0° 264° (W) 3,393 6.2 -33.5°
Reaches altitude 10° 20:16:38 10° 291° (WNW) 2,468 5.4 -34.2°
Maximum altitude 20:19:09 13° 318° (NW) 2,268 5.0 -34.6°
Drops below altitude 10° 20:21:41 10° 345° (NNW) 2,479 5.0 -35.0°
Sets 20:25:43 0° 13° (NNE) 3,422 5.5 -35.7°
